Time,TemperatureF,DewpointF,PressureIn,WindDirection,WindDirectionDegrees,WindSpeedMPH,WindSpeedGustMPH,Humidity,HourlyPrecipIn,Conditions,Clouds,dailyrainin,SoftwareType,DateUTC
2013-02-12 00:01:00,36.2,36.2,29.73,NW,315,0.0,2.0,100,0.00,,,-99.99,WeatherLink 5.7,2013-02-12 05:01:00,
2013-02-12 00:11:00,36.2,36.2,29.73,NW,315,0.0,1.0,100,0.00,,,-99.99,WeatherLink 5.7,2013-02-12 05:11:00,
2013-02-12 00:21:00,35.8,35.8,29.73,NW,315,0.0,1.0,100,0.00,,,-99.99,WeatherLink 5.7,2013-02-12 05:21:00,
2013-02-12 00:31:00,35.6,35.6,29.74,NE,45,0.0,3.0,100,0.00,,,-99.99,WeatherLink 5.7,2013-02-12 05:31:00,
2013-02-12 00:41:00,35.6,35.6,29.74,NE,45,1.0,3.0,100,0.00,,,-99.99,WeatherLink 5.7,2013-02-12 05:41:00,
2013-02-12 00:51:00,35.3,35.3,29.74,WNW,292,1.0,3.0,100,0.00,,,-99.99,WeatherLink 5.7,2013-02-12 05:51:00,
2013-02-12 01:01:00,34.9,34.9,29.73,WNW,292,1.0,7.0,100,0.00,,,-99.99,WeatherLink 5.7,2013-02-12 06:01:00,
2013-02-12 01:11:00,34.7,34.7,29.73,NNW,337,1.0,5.0,100,0.00,,,-99.99,WeatherLink 5.7,2013-02-12 06:11:00,
2013-02-12 01:21:00,34.5,34.5,29.73,NW,315,3.0,6.0,100,0.00,,,-99.99,WeatherLink 5.7,2013-02-12 06:21:00,
2013-02-12 01:31:00,34.5,34.5,29.72,NW,315,3.0,5.0,100,0.00,,,-99.99,WeatherLink 5.7,2013-02-12 06:31:00,
2013-02-12 01:41:00,34.8,34.8,29.73,NW,315,3.0,7.0,100,0.00,,,-99.99,WeatherLink 5.7,2013-02-12 06:41:00,
2013-02-12 01:51:00,35.1,33.8,29.74,NW,315,3.0,6.0,95,0.00,,,-99.99,WeatherLink 5.7,2013-02-12 06:51:00,
2013-02-12 02:01:00,35.3,31.8,29.74,NW,315,3.0,10.0,87,0.00,,,-99.99,WeatherLink 5.7,2013-02-12 07:01:00,
2013-02-12 02:11:00,35.5,30.2,29.75,NW,315,4.0,8.0,81,0.00,,,-99.99,WeatherLink 5.7,2013-02-12 07:11:00,
2013-02-12 02:21:00,35.7,28.9,29.75,WNW,292,4.0,8.0,76,0.00,,,-99.99,WeatherLink 5.7,2013-02-12 07:21:00,
2013-02-12 02:31:00,35.8,28.6,29.75,NW,315,3.0,8.0,75,0.00,,,-99.99,WeatherLink 5.7,2013-02-12 07:31:00,
2013-02-12 02:41:00,35.6,28.1,29.75,NW,315,3.0,6.0,74,0.00,,,-99.99,WeatherLink 5.7,2013-02-12 07:41:00,
2013-02-12 02:51:00,35.6,27.5,29.75,NW,315,4.0,8.0,72,0.00,,,-99.99,WeatherLink 5.7,2013-02-12 07:51:00,
2013-02-12 03:01:00,35.8,27.3,29.74,NW,315,4.0,8.0,71,0.00,,,-99.99,WeatherLink 5.7,2013-02-12 08:01:00,
2013-02-12 03:11:00,35.7,27.2,29.75,NW,315,4.0,6.0,71,0.00,,,-99.99,WeatherLink 5.7,2013-02-12 08:11:00,
2013-02-12 03:21:00,35.7,26.5,29.75,NW,315,4.0,9.0,69,0.00,,,-99.99,WeatherLink 5.7,2013-02-12 08:21:00,
2013-02-12 03:31:00,35.8,27.0,29.75,WNW,292,3.0,7.0,70,0.00,,,-99.99,WeatherLink 5.7,2013-02-12 08:31:00,
2013-02-12 03:41:00,35.5,26.7,29.77,NW,315,2.0,5.0,70,0.00,,,-99.99,WeatherLink 5.7,2013-02-12 08:41:00,
2013-02-12 03:51:00,35.4,26.6,29.77,NW,315,3.0,6.0,70,0.00,,,-99.99,WeatherLink 5.7,2013-02-12 08:51:00,
2013-02-12 04:01:00,35.8,27.0,29.77,NW,315,3.0,10.0,70,0.00,,,-99.99,WeatherLink 5.7,2013-02-12 09:01:00,
2013-02-12 04:11:00,35.8,27.0,29.77,NW,315,2.0,8.0,70,0.00,,,-99.99,WeatherLink 5.7,2013-02-12 09:11:00,
2013-02-12 04:21:00,36.0,26.8,29.78,NW,315,3.0,7.0,69,0.00,,,-99.99,WeatherLink 5.7,2013-02-12 09:21:00,
2013-02-12 04:31:00,36.0,26.5,29.78,NW,315,2.0,6.0,68,0.00,,,-99.99,WeatherLink 5.7,2013-02-12 09:31:00,
2013-02-12 04:41:00,35.7,27.2,29.79,WNW,292,1.0,3.0,71,0.00,,,-99.99,WeatherLink 5.7,2013-02-12 09:41:00,
2013-02-12 04:51:00,35.1,27.0,29.78,NW,315,1.0,4.0,72,0.00,,,-99.99,WeatherLink 5.7,2013-02-12 09:51:00,
2013-02-12 05:01:00,35.0,26.5,29.79,NW,315,2.0,4.0,71,0.00,,,-99.99,WeatherLink 5.7,2013-02-12 10:01:00,
2013-02-12 05:11:00,35.4,26.6,29.80,NW,315,2.0,6.0,70,0.00,,,-99.99,WeatherLink 5.7,2013-02-12 10:11:00,
2013-02-12 05:21:00,35.6,26.4,29.78,NW,315,2.0,5.0,69,0.00,,,-99.99,WeatherLink 5.7,2013-02-12 10:21:00,
2013-02-12 05:31:00,35.7,26.2,29.79,NW,315,2.0,5.0,68,0.00,,,-99.99,WeatherLink 5.7,2013-02-12 10:31:00,
2013-02-12 05:41:00,35.6,26.4,29.79,NW,315,1.0,4.0,69,0.00,,,-99.99,WeatherLink 5.7,2013-02-12 10:41:00,
2013-02-12 05:51:00,35.5,26.3,29.80,WNW,292,2.0,7.0,69,0.00,,,-99.99,WeatherLink 5.7,2013-02-12 10:51:00,
2013-02-12 06:01:00,35.4,26.9,29.80,NNW,337,0.0,3.0,71,0.00,,,-99.99,WeatherLink 5.7,2013-02-12 11:01:00,
2013-02-12 06:11:00,35.0,27.2,29.80,West,270,1.0,5.0,73,0.00,,,-99.99,WeatherLink 5.7,2013-02-12 11:11:00,
2013-02-12 06:21:00,34.8,26.4,29.80,NW,315,2.0,4.0,71,0.00,,,-99.99,WeatherLink 5.7,2013-02-12 11:21:00,
2013-02-12 06:31:00,34.9,26.1,29.82,North,0,1.0,4.0,70,0.00,,,-99.99,WeatherLink 5.7,2013-02-12 11:31:00,
2013-02-12 06:41:00,34.9,26.4,29.81,NW,315,1.0,4.0,71,0.00,,,-99.99,WeatherLink 5.7,2013-02-12 11:41:00,
2013-02-12 06:51:00,34.8,25.7,29.81,NW,315,2.0,6.0,69,0.00,,,-99.99,WeatherLink 5.7,2013-02-12 11:51:00,
2013-02-12 07:01:00,34.9,26.1,29.82,WNW,292,1.0,6.0,70,0.00,,,-99.99,WeatherLink 5.7,2013-02-12 12:01:00,
2013-02-12 07:11:00,35.0,25.9,29.82,WNW,292,2.0,5.0,69,0.00,,,-99.99,WeatherLink 5.7,2013-02-12 12:11:00,
2013-02-12 07:21:00,34.8,26.0,29.83,WNW,292,1.0,3.0,70,0.00,,,-99.99,WeatherLink 5.7,2013-02-12 12:21:00,
2013-02-12 07:31:00,34.7,26.3,29.83,NW,315,1.0,5.0,71,0.00,,,-99.99,WeatherLink 5.7,2013-02-12 12:31:00,
2013-02-12 07:41:00,34.7,25.9,29.84,WNW,292,1.0,5.0,70,0.00,,,-99.99,WeatherLink 5.7,2013-02-12 12:41:00,
2013-02-12 07:51:00,34.8,26.0,29.84,WNW,292,2.0,7.0,70,0.00,,,-99.99,WeatherLink 5.7,2013-02-12 12:51:00,
2013-02-12 08:01:00,34.8,25.7,29.84,West,270,1.0,3.0,69,0.00,,,-99.99,WeatherLink 5.7,2013-02-12 13:01:00,
2013-02-12 08:11:00,35.3,26.1,29.84,NW,315,1.0,5.0,69,0.00,,,-99.99,WeatherLink 5.7,2013-02-12 13:11:00,
2013-02-12 08:21:00,35.8,25.5,29.84,NW,315,2.0,4.0,66,0.00,,,-99.99,WeatherLink 5.7,2013-02-12 13:21:00,
2013-02-12 08:31:00,36.7,25.7,29.85,NW,315,2.0,6.0,64,0.00,,,-99.99,WeatherLink 5.7,2013-02-12 13:31:00,
2013-02-12 08:41:00,37.4,26.3,29.84,NW,315,2.0,6.0,64,0.00,,,-99.99,WeatherLink 5.7,2013-02-12 13:41:00,
2013-02-12 08:51:00,37.8,25.9,29.85,NNW,337,2.0,5.0,62,0.00,,,-99.99,WeatherLink 5.7,2013-02-12 13:51:00,
2013-02-12 09:01:00,38.4,26.1,29.85,NNW,337,2.0,6.0,61,0.00,,,-99.99,WeatherLink 5.7,2013-02-12 14:01:00,
2013-02-12 09:11:00,38.5,25.8,29.86,NNW,337,3.0,8.0,60,0.00,,,-99.99,WeatherLink 5.7,2013-02-12 14:11:00,
2013-02-12 09:21:00,38.6,25.9,29.85,NW,315,3.0,9.0,60,0.00,,,-99.99,WeatherLink 5.7,2013-02-12 14:21:00,
2013-02-12 09:31:00,38.6,25.9,29.85,NW,315,3.0,9.0,60,0.00,,,-99.99,WeatherLink 5.7,2013-02-12 14:31:00,
2013-02-12 09:41:00,38.6,26.3,29.86,NW,315,2.0,5.0,61,0.00,,,-99.99,WeatherLink 5.7,2013-02-12 14:41:00,
2013-02-12 09:51:00,38.5,25.8,29.87,NW,315,2.0,6.0,60,0.00,,,-99.99,WeatherLink 5.7,2013-02-12 14:51:00,
2013-02-12 10:01:00,38.8,25.7,29.86,NW,315,2.0,5.0,59,0.00,,,-99.99,WeatherLink 5.7,2013-02-12 15:01:00,
2013-02-12 10:11:00,39.0,25.9,29.86,WNW,292,3.0,7.0,59,0.00,,,-99.99,WeatherLink 5.7,2013-02-12 15:11:00,
2013-02-12 10:21:00,38.6,25.5,29.88,WNW,292,2.0,6.0,59,0.00,,,-99.99,WeatherLink 5.7,2013-02-12 15:21:00,
2013-02-12 10:31:00,38.4,26.1,29.89,NNW,337,1.0,4.0,61,0.00,,,-99.99,WeatherLink 5.7,2013-02-12 15:31:00,
2013-02-12 10:41:00,38.4,26.1,29.89,WNW,292,1.0,5.0,61,0.00,,,-99.99,WeatherLink 5.7,2013-02-12 15:41:00,
2013-02-12 10:51:00,38.4,26.1,29.89,NNW,337,2.0,5.0,61,0.00,,,-99.99,WeatherLink 5.7,2013-02-12 15:51:00,
2013-02-12 11:01:00,38.6,25.5,29.88,NNW,337,2.0,6.0,59,0.00,,,-99.99,WeatherLink 5.7,2013-02-12 16:01:00,
2013-02-12 11:11:00,38.8,25.3,29.90,NW,315,2.0,5.0,58,0.00,,,-99.99,WeatherLink 5.7,2013-02-12 16:11:00,
2013-02-12 11:21:00,39.3,25.7,29.89,NW,315,2.0,4.0,58,0.00,,,-99.99,WeatherLink 5.7,2013-02-12 16:21:00,
2013-02-12 11:31:00,39.8,25.8,29.90,NNW,337,2.0,8.0,57,0.00,,,-99.99,WeatherLink 5.7,2013-02-12 16:31:00,
2013-02-12 11:41:00,39.7,25.7,29.90,NW,315,2.0,6.0,57,0.00,,,-99.99,WeatherLink 5.7,2013-02-12 16:41:00,
2013-02-12 11:51:00,39.5,25.5,29.90,NW,315,3.0,8.0,57,0.00,,,-99.99,WeatherLink 5.7,2013-02-12 16:51:00,
2013-02-12 12:01:00,39.2,25.2,29.91,NW,315,3.0,7.0,57,0.00,,,-99.99,WeatherLink 5.7,2013-02-12 17:01:00,
2013-02-12 12:11:00,39.2,25.6,29.90,NW,315,3.0,7.0,58,0.00,,,-99.99,WeatherLink 5.7,2013-02-12 17:11:00,
2013-02-12 12:21:00,39.2,25.2,29.90,NNW,337,3.0,7.0,57,0.00,,,-99.99,WeatherLink 5.7,2013-02-12 17:21:00,
2013-02-12 12:31:00,39.5,25.5,29.90,West,270,2.0,8.0,57,0.00,,,-99.99,WeatherLink 5.7,2013-02-12 17:31:00,
2013-02-12 12:41:00,39.5,25.1,29.90,NW,315,2.0,6.0,56,0.00,,,-99.99,WeatherLink 5.7,2013-02-12 17:41:00,
2013-02-12 12:51:00,39.7,24.8,29.89,NW,315,4.0,10.0,55,0.00,,,-99.99,WeatherLink 5.7,2013-02-12 17:51:00,
2013-02-12 13:01:00,40.0,25.1,29.90,NW,315,3.0,9.0,55,0.00,,,-99.99,WeatherLink 5.7,2013-02-12 18:01:00,
2013-02-12 13:11:00,39.9,25.0,29.90,WNW,292,2.0,7.0,55,0.00,,,-99.99,WeatherLink 5.7,2013-02-12 18:11:00,
2013-02-12 13:21:00,39.6,25.2,29.91,WNW,292,3.0,7.0,56,0.00,,,-99.99,WeatherLink 5.7,2013-02-12 18:21:00,
2013-02-12 13:31:00,39.4,25.4,29.90,WNW,292,3.0,8.0,57,0.00,,,-99.99,WeatherLink 5.7,2013-02-12 18:31:00,
2013-02-12 13:41:00,39.3,24.9,29.90,NW,315,2.0,7.0,56,0.00,,,-99.99,WeatherLink 5.7,2013-02-12 18:41:00,
2013-02-12 13:51:00,39.2,25.2,29.90,WNW,292,2.0,8.0,57,0.00,,,-99.99,WeatherLink 5.7,2013-02-12 18:51:00,
2013-02-12 14:01:00,39.3,24.9,29.89,NNW,337,3.0,9.0,56,0.00,,,-99.99,WeatherLink 5.7,2013-02-12 19:01:00,
2013-02-12 14:11:00,39.3,25.7,29.90,NW,315,2.0,7.0,58,0.00,,,-99.99,WeatherLink 5.7,2013-02-12 19:11:00,
2013-02-12 14:21:00,39.5,25.1,29.89,NW,315,3.0,6.0,56,0.00,,,-99.99,WeatherLink 5.7,2013-02-12 19:21:00,
2013-02-12 14:31:00,39.4,25.0,29.89,WNW,292,2.0,9.0,56,0.00,,,-99.99,WeatherLink 5.7,2013-02-12 19:31:00,
2013-02-12 14:41:00,39.1,25.1,29.88,NW,315,3.0,8.0,57,0.00,,,-99.99,WeatherLink 5.7,2013-02-12 19:41:00,
2013-02-12 14:51:00,39.0,24.6,29.88,NW,315,4.0,7.0,56,0.00,,,-99.99,WeatherLink 5.7,2013-02-12 19:51:00,
2013-02-12 15:01:00,38.8,24.9,29.87,NW,315,3.0,9.0,57,0.00,,,-99.99,WeatherLink 5.7,2013-02-12 20:01:00,
2013-02-12 15:11:00,38.8,24.9,29.88,NW,315,3.0,9.0,57,0.00,,,-99.99,WeatherLink 5.7,2013-02-12 20:11:00,
2013-02-12 15:21:00,38.7,24.8,29.88,NW,315,3.0,6.0,57,0.00,,,-99.99,WeatherLink 5.7,2013-02-12 20:21:00,
2013-02-12 15:31:00,38.6,25.1,29.88,NW,315,2.0,5.0,58,0.00,,,-99.99,WeatherLink 5.7,2013-02-12 20:31:00,
2013-02-12 15:41:00,38.5,25.0,29.88,NNW,337,2.0,5.0,58,0.00,,,-99.99,WeatherLink 5.7,2013-02-12 20:41:00,
2013-02-12 15:51:00,38.3,24.8,29.87,North,0,3.0,6.0,58,0.00,,,-99.99,WeatherLink 5.7,2013-02-12 20:51:00,
2013-02-12 16:01:00,38.0,24.5,29.85,NW,315,2.0,4.0,58,0.00,,,-99.99,WeatherLink 5.7,2013-02-12 21:01:00,
2013-02-12 16:11:00,37.6,24.6,29.83,NNW,337,3.0,7.0,59,0.00,,,-99.99,WeatherLink 5.7,2013-02-12 21:11:00,
2013-02-12 16:21:00,37.3,24.3,29.82,NW,315,2.0,5.0,59,0.00,,,-99.99,WeatherLink 5.7,2013-02-12 21:21:00,
2013-02-12 16:31:00,37.1,25.3,29.83,NW,315,1.0,3.0,62,0.00,,,-99.99,WeatherLink 5.7,2013-02-12 21:31:00,
2013-02-12 16:41:00,36.9,24.3,29.87,NW,315,2.0,5.0,60,0.00,,,-99.99,WeatherLink 5.7,2013-02-12 21:41:00,
2013-02-12 16:51:00,36.8,24.6,29.87,NW,315,2.0,5.0,61,0.00,,,-99.99,WeatherLink 5.7,2013-02-12 21:51:00,
2013-02-12 17:01:00,36.5,24.7,29.88,NW,315,1.0,3.0,62,0.00,,,-99.99,WeatherLink 5.7,2013-02-12 22:01:00,
2013-02-12 17:11:00,36.1,24.3,29.88,North,0,2.0,4.0,62,0.00,,,-99.99,WeatherLink 5.7,2013-02-12 22:11:00,
2013-02-12 17:21:00,35.8,25.2,29.89,NNW,337,1.0,3.0,65,0.00,,,-99.99,WeatherLink 5.7,2013-02-12 22:21:00,
2013-02-12 17:31:00,35.5,24.1,29.95,NNW,337,0.0,4.0,63,0.00,,,-99.99,WeatherLink 5.7,2013-02-12 22:31:00,
2013-02-12 17:41:00,35.6,23.9,29.93,North,0,2.0,8.0,62,0.00,,,-99.99,WeatherLink 5.7,2013-02-12 22:41:00,
2013-02-12 17:51:00,35.6,25.4,29.95,NW,315,1.0,3.0,66,0.00,,,-99.99,WeatherLink 5.7,2013-02-12 22:51:00,
2013-02-12 18:01:00,35.3,24.3,29.97,North,0,1.0,4.0,64,0.00,,,-99.99,WeatherLink 5.7,2013-02-12 23:01:00,
2013-02-12 18:11:00,35.4,24.4,29.95,North,0,1.0,6.0,64,0.00,,,-99.99,WeatherLink 5.7,2013-02-12 23:11:00,
2013-02-12 18:21:00,35.2,24.6,29.95,NW,315,1.0,4.0,65,0.00,,,-99.99,WeatherLink 5.7,2013-02-12 23:21:00,
2013-02-12 18:31:00,35.2,25.0,29.96,NW,315,1.0,3.0,66,0.00,,,-99.99,WeatherLink 5.7,2013-02-12 23:31:00,
2013-02-12 18:41:00,35.1,24.1,29.95,North,0,1.0,4.0,64,0.00,,,-99.99,WeatherLink 5.7,2013-02-12 23:41:00,
2013-02-12 18:51:00,35.1,25.2,29.96,WNW,292,1.0,4.0,67,0.00,,,-99.99,WeatherLink 5.7,2013-02-12 23:51:00,
2013-02-12 19:01:00,34.8,25.7,29.95,NNW,337,1.0,4.0,69,0.00,,,-99.99,WeatherLink 5.7,2013-02-13 00:01:00,
2013-02-12 19:11:00,34.5,24.7,29.95,NW,315,1.0,4.0,67,0.00,,,-99.99,WeatherLink 5.7,2013-02-13 00:11:00,
2013-02-12 19:21:00,34.4,25.3,29.96,WNW,292,0.0,2.0,69,0.00,,,-99.99,WeatherLink 5.7,2013-02-13 00:21:00,
2013-02-12 19:31:00,34.2,24.7,29.95,WNW,292,0.0,3.0,68,0.00,,,-99.99,WeatherLink 5.7,2013-02-13 00:31:00,
2013-02-12 19:41:00,34.1,24.3,29.96,NNW,337,0.0,2.0,67,0.00,,,-99.99,WeatherLink 5.7,2013-02-13 00:41:00,
2013-02-12 19:51:00,34.1,24.6,29.96,South,180,0.0,2.0,68,0.00,,,-99.99,WeatherLink 5.7,2013-02-13 00:51:00,
2013-02-12 20:01:00,34.0,24.5,29.96,NNW,337,0.0,4.0,68,0.00,,,-99.99,WeatherLink 5.7,2013-02-13 01:01:00,
2013-02-12 20:11:00,33.9,24.4,29.95,North,0,0.0,2.0,68,0.00,,,-99.99,WeatherLink 5.7,2013-02-13 01:11:00,
2013-02-12 20:21:00,33.4,24.3,29.94,ENE,67,0.0,2.0,69,0.00,,,-99.99,WeatherLink 5.7,2013-02-13 01:21:00,
2013-02-12 20:31:00,32.9,24.2,29.94,NNE,22,0.0,1.0,70,0.00,,,-99.99,WeatherLink 5.7,2013-02-13 01:31:00,
2013-02-12 20:41:00,32.5,23.5,29.93,ENE,67,0.0,3.0,69,0.00,,,-99.99,WeatherLink 5.7,2013-02-13 01:41:00,
2013-02-12 20:51:00,32.2,23.5,29.92,ENE,67,0.0,2.0,70,0.00,,,-99.99,WeatherLink 5.7,2013-02-13 01:51:00,
2013-02-12 21:01:00,31.9,22.5,29.93,ENE,67,0.0,1.0,68,0.00,,,-99.99,WeatherLink 5.7,2013-02-13 02:01:00,
2013-02-12 21:11:00,31.8,22.8,29.92,ENE,67,0.0,2.0,69,0.00,,,-99.99,WeatherLink 5.7,2013-02-13 02:11:00,
2013-02-12 21:21:00,31.6,22.9,29.91,ENE,67,0.0,3.0,70,0.00,,,-99.99,WeatherLink 5.7,2013-02-13 02:21:00,
2013-02-12 21:31:00,31.3,23.0,29.91,NNW,337,0.0,2.0,71,0.00,,,-99.99,WeatherLink 5.7,2013-02-13 02:31:00,
2013-02-12 21:41:00,31.1,22.5,29.91,NNW,337,0.0,2.0,70,0.00,,,-99.99,WeatherLink 5.7,2013-02-13 02:41:00,
2013-02-12 21:51:00,30.8,22.2,29.92,North,0,0.0,3.0,70,0.00,,,-99.99,WeatherLink 5.7,2013-02-13 02:51:00,
2013-02-12 22:01:00,30.8,22.2,29.91,SSE,157,0.0,3.0,70,0.00,,,-99.99,WeatherLink 5.7,2013-02-13 03:01:00,
2013-02-12 22:11:00,30.8,22.2,29.91,SSE,157,0.0,2.0,70,0.00,,,-99.99,WeatherLink 5.7,2013-02-13 03:11:00,
2013-02-12 22:21:00,30.9,22.3,29.91,SE,135,1.0,2.0,70,0.00,,,-99.99,WeatherLink 5.7,2013-02-13 03:21:00,
2013-02-12 22:31:00,30.8,21.8,29.92,SSE,157,1.0,4.0,69,0.00,,,-99.99,WeatherLink 5.7,2013-02-13 03:31:00,
2013-02-12 22:41:00,30.6,22.0,29.90,SSE,157,0.0,2.0,70,0.00,,,-99.99,WeatherLink 5.7,2013-02-13 03:41:00,
2013-02-12 22:51:00,30.3,21.7,29.91,SSE,157,0.0,1.0,70,0.00,,,-99.99,WeatherLink 5.7,2013-02-13 03:51:00,
2013-02-12 23:01:00,30.4,21.4,29.92,SSE,157,0.0,2.0,69,0.00,,,-99.99,WeatherLink 5.7,2013-02-13 04:01:00,
2013-02-12 23:11:00,30.6,22.0,29.92,South,180,0.0,3.0,70,0.00,,,-99.99,WeatherLink 5.7,2013-02-13 04:11:00,
2013-02-12 23:21:00,30.4,22.1,29.92,South,180,0.0,2.0,71,0.00,,,-99.99,WeatherLink 5.7,2013-02-13 04:21:00,
2013-02-12 23:31:00,30.2,21.9,29.92,SSE,157,0.0,3.0,71,0.00,,,-99.99,WeatherLink 5.7,2013-02-13 04:31:00,
2013-02-12 23:41:00,30.1,22.2,29.92,SSE,157,0.0,3.0,72,0.00,,,-99.99,WeatherLink 5.7,2013-02-13 04:41:00,
2013-02-12 23:51:00,30.1,21.5,29.92,SE,135,0.0,1.0,70,0.00,,,-99.99,WeatherLink 5.7,2013-02-13 04:51:00,